Regional Weather Roundup
Issued by NWS

Home | Current Version | Previous Version | Graphics & Text | Print | Product List | Glossary On
Versions: 1 2 3 4 5 6 7 8 9 10 11 12 13 14 15 16 17 18 19 20 21 22 23 24 25 26 27 28 29 30 31 32 33 34 35 36 37 38 39 40 41 42 43 44 45 46 47 48 49 50
289
ASUS43 KIND 281059
RWRIN

WEATHER ROUNDUP FOR INDIANA
NATIONAL WEATHER SERVICE INDIANAPOLIS IN
700 AM EDT WED SEP 28 2016

NOTE: "FAIR" INDICATES FEW OR NO CLOUDS BELOW 12,000 FEET WITH NO
SIGNIFICANT WEATHER AND/OR OBSTRUCTIONS TO VISIBILITY.

* - STATION DOES NOT REPORT WEATHER SUCH AS PRECIPITATION OR FOG.

+ - STATION NOT QUALITY CONTROLLED BY THE NATIONAL WEATHER SERVICE.
    USE DATA WITH CAUTION...ESPECIALLY DEWPOINT AND RELATIVE
    HUMIDITY OBSERVATIONS.

INZ001>003-010>013-019-020-281200-
NORTHWEST INDIANA

CITY           SKY/WX    TMP DP  RH WIND       PRES   REMARKS
GARY /AIRPORT/ CLOUDY    55  48  76 NW9       29.78S

$$

LMZ046-743>745-281200-
SOUTHERN LAKE MICHIGAN

STATION/POSITION TIME  TEMP    WIND        PRES    WAVE
                       AIR SEA DIR/SP/G            HT
                 (UTC) (F)     (DEG/KT/KT) (MB)    (FT)
BURNS HARBOR     1001   58      70/  7/ 15 1008.5R
MICHIGAN CITY    1000   56      30/ 12/ 13   N/A
5NW MICH CITY    1000   58 67   70/ 10/ 12   N/A     2

$$

INZ004-005-014>016-021>024-281200-
NORTH CENTRAL INDIANA

CITY           SKY/WX    TMP DP  RH WIND       PRES   REMARKS
ELKHART        CLOUDY   N/A N/A N/A CALM      29.78
GOSHEN         CLOUDY    50  44  80 N3        29.77R
PERU/GRISSOM   CLOUDY    55  50  82 W8        29.76R
SOUTH BEND     CLOUDY    52  48  86 E6        29.78R

$$

INZ006>009-017-018-025>027-281200-
NORTHEAST INDIANA

CITY           SKY/WX    TMP DP  RH WIND       PRES   REMARKS
ANGOLA *+        N/A     48  36  61 E6        29.77S
FORT WAYNE     CLOUDY    53  47  79 SE3       29.76R
KENDALLVILLE + CLOUDY    50  44  79 W5        29.78R

$$

INZ028-029-035-036-043>045-051>053-281200-
WEST CENTRAL INDIANA

CITY           SKY/WX    TMP DP  RH WIND       PRES   REMARKS
CRAWFORDSVL +  CLOUDY    55  55  99 N3        29.76R
LAFAYETTE      CLOUDY    54  48  80 N7        29.74F
TERRE HAUTE    CLOUDY    60  53  77 S3        29.75S

$$

INZ030>032-037>040-046>048-054>057-064-065-281200-
CENTRAL INDIANA

CITY           SKY/WX    TMP DP  RH WIND       PRES   REMARKS
COLUMBUS       LGT RAIN  57  54  88 S6        29.78
INDIANAPOLIS   LGT RAIN  58  55  90 E3        29.77R
-EAGLE CREEK   LGT RAIN  59  55  87 CALM      29.78R
MT COMFORT *+  CLOUDY    55  54  94 S6        29.79R
SHELBYVILLE    CLOUDY    57  53  86 SE6       29.78R

$$

INZ033-034-041-042-049-050-058-059-281200-
EAST CENTRAL INDIANA

CITY           SKY/WX    TMP DP  RH WIND       PRES   REMARKS
MUNCIE         LGT RAIN  58  54  86 SE7       29.78F

$$

INZ060-061-067>069-081>083-085>088-281200-
SOUTHWEST INDIANA

CITY           SKY/WX    TMP DP  RH WIND       PRES   REMARKS
EVANSVILLE     MOCLDY    60  52  74 SW8       29.81F
HUNTINGBURG *+   N/A     57  48  72 S9        29.81F

$$

INZ062-063-066-070>080-084-089>092-281200-
SOUTH CENTRAL AND SOUTHEAST INDIANA

CITY           SKY/WX    TMP DP  RH WIND       PRES   REMARKS
BLOOMINGTON    CLOUDY    60  52  74 SW9       29.77F
MADISON *+     CLOUDY    57  46  67 S7        29.83S
SEYMOUR +      CLOUDY    61  50  67 CALM      29.79F

$$





USA.gov is the U.S. government's official web portal to all federal, state and local government web resources and services.